Regional Weather Roundup
Issued by NWS

Home | Current Version | Previous Version | Graphics & Text | Print | Product List | Glossary Off
Versions: 1 2 3 4 5 6 7 8 9 10 11 12 13 14 15 16 17 18 19 20 21 22 23 24 25 26 27 28 29 30 31 32 33 34 35 36 37 38 39 40 41 42 43 44 45 46 47 48 49 50

000
ASUS43 KTOP 311008
RWRKS

WEATHER ROUNDUP FOR KANSAS
NATIONAL WEATHER SERVICE GOODLAND KS
500 AM CDT SUN AUG 31 2014

NOTE:  "FAIR" INDICATES FEW OR NO CLOUDS BELOW 12,000 FEET WITH NO
SIGNIFICANT WEATHER AND/OR OBSTRUCTIONS TO VISIBILITY.

KSZ001>006-013>018-027>032-041>047-311100-
NORTHWEST KANSAS

CITY           SKY/WX    TMP DP  RH WIND       PRES   REMARKS
GOODLAND       CLEAR     62  58  86 S10       29.85F
HAYS           MOCLDY    70  61  73 W6        29.86R
HILL CITY      CLOUDY    73  57  57 SW10      29.83F
$$

KSZ061>065-074>080-084>089-311100-
SOUTHWEST KANSAS

CITY           SKY/WX    TMP DP  RH WIND       PRES   REMARKS
DODGE CITY     PTCLDY    72  59  63 S14       29.85S
ELKHART          N/A     74  49  41 S17         N/A
GARDEN CITY    PTCLDY    74  58  57 S20G29    29.85S
GREAT BEND     PTCLDY    72  57  60 S9        29.84S
LIBERAL        MOCLDY    73  55  53 S13       29.90S
PRATT          CLEAR     68  59  73 S9        29.88R
$$

KSZ066>073-081>083-090>101-311100-
SOUTHEAST KANSAS

CITY           SKY/WX    TMP DP  RH WIND       PRES   REMARKS
CHANUTE        CLEAR     72  69  90 S9        29.91R
COFFEYVILLE    CLEAR     71  69  93 SE3       29.90S
HUTCHINSON     CLEAR     70  65  84 SE7       29.86S
MEDICINE LODGE   N/A     73  61  65 CALM      29.87R
NEWTON         MOCLDY    70  63  78 S9        29.90S
PARSONS        CLEAR     72  69  90 CALM      29.92R
WICHITA INTL   PTCLDY    71  66  84 S9        29.86S
WICHITA JABRA  CLEAR     71  67  87 S9        29.87S
WICHITA MCCONL PTCLDY    73  71  95 S12       29.88R
WINFIELD       CLEAR     71  68  90 SE9       29.89S
$$

KSZ007>012-019>026-033>040-048>060-102>105-311100-
NORTHEAST KANSAS

CITY           SKY/WX    TMP DP  RH WIND       PRES   REMARKS
CONCORDIA      PTCLDY    73  64  73 S21       29.81F
EMPORIA        CLEAR     69  66  90 S12       29.88S
LAWRENCE       CLEAR     69  64  84 CALM      29.88R
MANHATTAN      CLEAR     66  62  87 CALM      29.83F
MARYSVILLE     CLEAR     66  63  88 SE5       29.83F
OLATHE IND     CLEAR     68  66  93 S6        29.89F
OLATHE EXE     CLEAR     69  67  93 S7        29.89S
SALINA         CLEAR     74  64  71 S9        29.83S
TOPEKA BILLARD CLEAR     70  65  84 SE5       29.86S
TOPEKA FORBES  CLEAR     70  65  84 S10       29.86S
$$


USA.gov is the U.S. government's official web portal to all federal, state and local government web resources and services.